Location: Hillern
(53.0557°N, 9.8577°E)
Time: 10:50:07
(UTC+00:00)

Meteor 2-6 Rocket - Pass Details

Date: 19 May 2025
Orbit: 804 x 914 km, 81.3° (Epoch: 23 June)

Event Time Altitude Azimuth Distance (km) Brightness Sun altitude
Exits shadow 21:30:07 10° 193° (SSW) 2,540 6.2 -13.4°
Maximum altitude 21:35:55 86° 282° (WNW) 890 4.3 -13.8°
Drops below altitude 10° 21:41:40 10° 13° (NNE) 2,511 7.5 -14.1°
Sets 21:44:04 0° 14° (NNE) 3,435 8.3 -14.2°
